Weather History for MMCZ - January, 2014

Change the Weather History Date:

Friday, January 31, 2014

  Actual Average Record
Temperature  
Mean Temperature 70 °F -  
Max Temperature 73 °F 82 °F 86 °F (1998)
Min Temperature 66 °F 69 °F 53 °F (2011)
Cooling Degree Days 4    
Growing Degree Days 20 (Base 50)    
Moisture  
Dew Point 69 °F    
Average Humidity 96    
Maximum Humidity 100    
Minimum Humidity 88    
Precipitation  
Precipitation 9.05 in - - ()
Sea Level Pressure  
Sea Level Pressure 29.99 in    
Wind  
Wind Speed 7 mph ()    
Max Wind Speed 14 mph    
Max Gust Speed -    
Visibility 6.7 miles    
Events Rain    
Averages and records for this station are not official NWS values.
T = Trace of Precipitation, MM = Missing Value Source: Averaged Metar Reports

Daily Weather History Graph

Daily Weather History Graph

Search for Another Location

Airport or City:

Trip Planner

Search our weather history database for the weather conditions in past years. The results will help you decide how hot, cold, wet, or windy it might be!

Date:

Astronomy

Jan. 31, 2014 Rise Set
Actual Time 6:24 AM CST 5:38 PM CST
Civil Twilight 6:01 AM CST 6:01 PM CST
Nautical Twilight 5:34 AM CST 6:28 PM CST
Astronomical Twilight 5:08 AM CST 6:54 PM CST
Moon 6:46 AM CST (1/31) 6:45 PM CST (1/31)
Length of Visible Light 12h 00m
Length of Day
11h 14m
New Moon, 1% of the Moon is Illuminated
Jan 31
New Moon
Feb 6
First Quarter
Feb 14
Full
Feb 22
Last Quarter
Mar 1
New

Hourly Weather History & Observations

Time (CST) Temp. Dew Point Humidity Pressure Visibility Wind Dir Wind Speed Gust Speed Precip Events Conditions
12:44 AM 66.2 °F 66.2 °F 100% 29.97 in 7.0 mi Calm Calm - N/A   Clear
1:50 AM 68.0 °F 68.0 °F 100% 29.97 in 7.0 mi NNE 10.4 mph - N/A   Scattered Clouds
2:43 AM 69.8 °F 68.0 °F 94% 29.99 in 7.0 mi NNE 13.8 mph - N/A   Mostly Cloudy
3:41 AM 69.8 °F 68.0 °F 94% 29.95 in 7.0 mi NNE 6.9 mph - N/A   Scattered Clouds
4:51 AM 68.0 °F 68.0 °F 100% 29.96 in 3.0 mi NNE 13.8 mph - N/A Rain Rain
5:43 AM 68.0 °F 68.0 °F 100% 29.94 in 6.0 mi NE 9.2 mph - N/A   Mostly Cloudy
6:44 AM 68.0 °F 68.0 °F 100% 29.99 in 6.0 mi ENE 13.8 mph - N/A   Mostly Cloudy
7:40 AM 69.8 °F 68.0 °F 94% 30.00 in 6.0 mi ENE 11.5 mph - N/A   Mostly Cloudy
8:44 AM 69.8 °F 69.8 °F 100% 30.06 in 6.0 mi ENE 13.8 mph - N/A   Mostly Cloudy
9:40 AM 69.8 °F 69.8 °F 100% 30.05 in 7.0 mi East 8.1 mph - N/A   Mostly Cloudy
10:40 AM 71.6 °F 69.8 °F 94% 30.04 in 7.0 mi ENE 8.1 mph - N/A   Overcast
11:42 AM 71.6 °F 69.8 °F 94% 30.01 in 7.0 mi NE 9.2 mph - N/A   Overcast
12:40 PM 73.4 °F 69.8 °F 88% 29.99 in 7.0 mi East 5.8 mph - N/A   Mostly Cloudy
1:42 PM 73.4 °F 69.8 °F 88% 29.97 in 7.0 mi ENE 6.9 mph - N/A   Overcast
2:42 PM 73.4 °F 69.8 °F 88% 29.99 in 7.0 mi ENE 6.9 mph - N/A   Mostly Cloudy
3:41 PM 73.4 °F 69.8 °F 88% 29.97 in 7.0 mi NE 5.8 mph - N/A   Mostly Cloudy
4:40 PM 71.6 °F 69.8 °F 94% 29.97 in 7.0 mi ENE 3.5 mph - N/A   Mostly Cloudy
5:40 PM 71.6 °F 69.8 °F 94% 29.96 in 7.0 mi ENE 3.5 mph - N/A   Mostly Cloudy
6:45 PM 69.8 °F 69.8 °F 100% 29.99 in 7.0 mi East 3.5 mph - N/A   Scattered Clouds
7:45 PM 69.8 °F 69.8 °F 100% 30.01 in 7.0 mi Calm Calm - N/A   Scattered Clouds
8:45 PM 69.8 °F 68.0 °F 94% 30.05 in 7.0 mi East 4.6 mph - N/A   Clear
9:42 PM 68.0 °F 68.0 °F 100% 30.02 in 7.0 mi East 4.6 mph - N/A   Clear
11:01 PM 68.0 °F 68.0 °F 100% 30.01 in 7.0 mi East 3.5 mph - N/A   Partly Cloudy
11:47 PM 69.8 °F 69.8 °F 100% 29.98 in 7.0 mi East 5.8 mph - N/A   Partly Cloudy